Location: Lima
(44.6384°N, 112.5920°W)
Time: 04:38:05
(UTC+00:00)

CUBEBUG 2 - Visible Passes

Search period start: 16 April 2024 00:00
Search period end: 26 April 2024 00:00
Orbit: 571 x 672 km, 97.8° (Epoch: 15 April)

Date Brightness Start Highest point End Pass type
(mag) Time Alt. Az. Time Alt. Az. Time Alt. Az.
16 Apr ? 09:28:06 10° NNE 09:30:57 39° NE 09:30:57 39° NE visible
16 Apr ? 11:05:37 10° NNW 11:07:50 14° WNW 11:08:09 14° WNW visible
17 Apr ? 09:45:46 10° NNE 09:48:59 55° NNE 09:48:59 55° NNE visible
18 Apr ? 08:29:19 10° ENE 08:29:48 11° ENE 08:29:48 11° ENE visible
18 Apr ? 10:03:32 10° N 10:07:00 53° NW 10:07:00 53° NW visible
19 Apr ? 08:45:57 10° NE 08:47:48 17° ENE 08:47:48 17° ENE visible
19 Apr ? 10:21:25 10° N 10:25:00 37° WNW 10:25:00 37° WNW visible
20 Apr ? 09:03:07 10° NE 09:05:48 26° ENE 09:05:48 26° ENE visible
20 Apr ? 10:39:25 10° NNW 10:42:46 25° WNW 10:43:00 25° WNW visible
21 Apr ? 09:20:32 10° NNE 09:23:47 41° ENE 09:23:47 41° ENE visible
21 Apr ? 10:57:38 10° NNW 11:00:19 17° WNW 11:00:59 17° WNW visible
22 Apr ? 09:38:05 10° NNE 09:41:46 65° NE 09:41:46 65° NE visible
22 Apr ? 11:16:21 10° NW 11:17:47 12° WNW 11:18:57 11° WNW visible
23 Apr ? 09:55:45 10° N 09:59:43 71° WNW 09:59:43 71° WNW visible
24 Apr ? 08:38:28 10° NE 08:40:29 16° E 08:40:29 16° E visible
24 Apr ? 10:13:31 10° N 10:17:27 45° WNW 10:17:41 45° W visible
25 Apr ? 08:55:27 10° NE 08:58:25 24° E 08:58:25 24° E visible
25 Apr ? 10:31:24 10° N 10:35:00 30° WNW 10:35:37 29° W visible
